Location: Peebles
(55.6412°N, 3.1714°W)
Time: 11:09:50
(UTC+00:00)

CUTE-I - Pass Details

Date: 15 December 2023
Orbit: 807 x 823 km, 98.7° (Epoch: 24 February)

Event Time Altitude Azimuth Distance (km) Brightness Sun altitude
Rises 04:51:00 0° 28° (NNE) 3,370 ? -29.7°
Reaches altitude 10° 04:55:02 10° 58° (ENE) 2,432 ? -29.2°
Maximum altitude 04:57:10 12° 81° (E) 2,270 ? -28.9°
Drops below altitude 10° 04:59:18 10° 105° (ESE) 2,427 ? -28.6°
Sets 05:03:17 0° 135° (SE) 3,352 ? -28.0°
